RV1CJ-14 Weather Reports


time (UTC)temp
C
wind
direction
speed
KPH
gust
KPH
rain 1hr
cm
rain 24hr
cm
rain mn
cm
humidity
%
barometer
mb
20260505161003 11 341 3.2 6.4 0.00 0.00 0.00 54 1001.6
20260505153003 11 342 3.2 9.7 0.00 0.00 0.00 59 1001.4
20260505152003 12 342 3.2 6.4 0.00 0.00 0.00 60 1001.5
20260505151003 12 343 3.2 8.0 0.00 0.00 0.00 60 1001.5
20260505125003 11 340 1.6 4.8 0.00 0.03 0.00 69 1000.6
20260505124003 11 340 1.6 4.8 0.00 0.03 0.00 67 1000.6
20260505123003 12 340 1.6 4.8 0.00 0.03 0.00 65 1000.5
20260505122003 13 339 1.6 6.4 0.00 0.03 0.00 60 1000.4
20260505121003 15 339 1.6 4.8 0.00 0.03 0.00 55 1000.2
20260505120004 16 341 3.2 17.7 0.00 0.03 0.00 53 1000.1
20260505115003 17 349 1.6 9.7 0.00 0.03 0.00 50 999.7
20260505114003 16 113 1.6 9.7 0.00 0.03 0.00 50 999.8
20260505113003 16 66 1.6 6.4 0.00 0.03 0.00 50 999.8
20260505112003 16 160 3.2 12.9 0.00 0.03 0.00 51 999.8
20260505111003 16 164 3.2 17.7 0.00 0.03 0.00 50 999.7
20260505070004 12 171 1.6 4.8 0.00 0.03 0.00 75 1000.5
20260505065003 11 163 1.6 11.3 0.00 0.03 0.00 75 1000.6
20260505064003 12 1 1.6 9.7 0.00 0.03 0.00 76 1000.6
20260505063003 11 126 0.0 4.8 0.00 0.03 0.00 78 1000.6
20260505062003 11 86 1.6 6.4 0.00 0.03 0.00 79 1000.5
20260505061003 11 349 1.6 4.8 0.00 0.03 0.00 81 1000.5
20260505060003 10 341 0.0 3.2 0.00 0.03 0.00 84 1000.5
20260505055003 10 341 0.0 3.2 0.00 0.03 0.00 84 1000.5
20260505054003 10 176 1.6 8.0 0.00 0.03 0.00 85 1000.5
20260505053003 10 162 1.6 4.8 0.00 0.03 0.00 85 1000.4
20260505052003 10 339 1.6 9.7 0.00 0.03 0.00 85 1000.4
20260505051003 10 211 0.0 9.7 0.00 0.03 0.00 85 1000.3
20260505041003 9 165 1.6 4.8 0.00 0.03 0.00 86 1000.2
20260505040004 8 344 0.0 3.2 0.00 0.03 0.00 86 1000.2
20260505035003 8 344 0.0 3.2 0.00 0.03 0.00 86 1000.4
20260505034003 8 343 0.0 4.8 0.00 0.03 0.00 86 1000.5
20260505033003 8 342 0.0 3.2 0.00 0.03 0.00 86 1000.5
20260505032003 8 342 0.0 3.2 0.00 0.03 0.00 86 1000.5
20260505031003 8 341 0.0 1.6 0.00 0.03 0.00 87 1000.5
20260505030003 8 342 0.0 3.2 0.00 0.03 0.00 87 1000.4
20260505025003 8 342 0.0 3.2 0.00 0.03 0.00 87 1000.4
20260505024003 8 342 0.0 4.8 0.00 0.03 0.00 87 1000.3
20260505023003 8 342 0.0 3.2 0.00 0.03 0.00 87 1000.4
20260505022003 8 342 0.0 3.2 0.00 0.03 0.00 87 1000.4
20260505021003 8 342 0.0 4.8 0.00 0.03 0.00 87 1000.4
20260505020003 8 342 0.0 1.6 0.00 0.03 0.00 87 1000.4
20260505015003 8 342 0.0 1.6 0.00 0.03 0.00 88 1000.3
20260505014003 8 342 0.0 3.2 0.00 0.03 0.00 88 1000.3
20260505013003 8 342 1.6 3.2 0.00 0.03 0.00 88 1000.4
20260505012003 8 342 1.6 3.2 0.00 0.03 0.00 88 1000.5
20260505011003 8 342 0.0 3.2 0.00 0.03 0.00 88 1000.5
20260505010003 8 342 1.6 3.2 0.00 0.03 0.00 88 1000.4
20260505005004 8 342 0.0 3.2 0.00 0.03 0.00 88 1000.4
20260505004003 8 342 0.0 3.2 0.00 0.03 0.00 88 1000.3
20260505003003 8 342 1.6 3.2 0.00 0.03 0.00 88 1000.3
20260505002003 8 342 0.0 3.2 0.00 0.03 0.00 88 1000.2
20260505001003 8 342 1.6 3.2 0.00 0.03 0.00 88 1000.2
20260505000003 8 342 0.0 1.6 0.00 0.03 0.00 88 1000.2
20260504235003 8 342 1.6 3.2 0.00 0.03 0.00 88 1000.1
20260504234003 8 342 1.6 4.8 0.00 0.03 0.00 88 1000.0
20260504233003 8 342 0.0 4.8 0.00 0.03 0.00 88 1000.0
20260504232003 8 342 1.6 3.2 0.00 0.03 0.00 88 999.9
20260504231003 8 342 1.6 4.8 0.00 0.03 0.00 88 999.9
20260504230003 8 342 1.6 4.8 0.00 0.03 0.00 88 999.9
20260504225003 8 342 1.6 4.8 0.00 0.03 0.00 88 999.8
20260504224003 8 342 1.6 4.8 0.00 0.03 0.00 88 999.7
20260504223003 8 342 1.6 3.2 0.00 0.03 0.00 88 999.7
20260504222003 8 342 1.6 3.2 0.00 0.03 0.00 88 999.8
20260504221003 8 342 1.6 4.8 0.00 0.03 0.00 89 999.7
20260504220003 8 342 1.6 4.8 0.00 0.03 0.00 88 999.7
20260504215003 8 342 1.6 4.8 0.00 0.03 0.00 88 999.6
20260504214003 8 342 1.6 4.8 0.00 0.03 0.00 87 999.5
20260504213003 8 342 3.2 8.0 0.00 0.03 0.00 87 999.4
20260504212003 9 343 1.6 4.8 0.00 0.03 0.00 87 999.3
20260504211003 9 342 1.6 6.4 0.00 0.03 0.00 88 999.2
20260504210004 9 342 1.6 4.8 0.00 0.03 0.00 89 999.0
20260504205003 9 342 1.6 4.8 0.00 0.03 0.03 89 998.9
20260504204003 9 342 1.6 3.2 0.00 0.03 0.03 89 998.8
20260504203003 9 342 1.6 4.8 0.00 0.03 0.03 88 998.8
20260504202003 10 342 3.2 8.0 0.00 0.03 0.03 88 998.8
20260504201003 10 343 1.6 4.8 0.00 0.03 0.03 87 998.6
20260504200003 10 344 3.2 8.0 0.00 0.03 0.03 87 998.4
20260504195003 10 343 1.6 6.4 0.00 0.03 0.03 88 998.3
20260504194003 10 342 1.6 6.4 0.00 0.03 0.03 88 998.3
20260504193003 10 342 1.6 6.4 0.00 0.03 0.03 87 998.2
20260504192003 11 342 1.6 6.4 0.00 0.03 0.03 86 998.0
20260504191003 11 342 1.6 4.8 0.00 0.03 0.03 85 997.8
20260504190003 11 342 1.6 6.4 0.00 0.03 0.03 85 997.7
20260504185003 12 342 1.6 6.4 0.00 0.03 0.03 85 997.5
20260504184003 12 342 1.6 4.8 0.00 0.03 0.03 86 997.5
20260504183003 11 342 1.6 3.2 0.00 0.03 0.03 88 997.5
20260504182003 11 342 1.6 4.8 0.00 0.03 0.03 89 997.5
20260504181003 11 342 1.6 3.2 0.00 0.03 0.03 89 997.3
20260504180004 11 342 1.6 3.2 0.00 0.03 0.03 89 997.2
20260504175003 12 342 0.0 3.2 0.00 0.03 0.03 89 997.1
20260504174003 12 342 0.0 3.2 0.00 0.03 0.03 89 996.9
20260504173003 12 342 1.6 4.8 0.00 0.03 0.03 88 996.6
20260504172003 12 342 1.6 4.8 0.00 0.03 0.03 87 996.7
20260504171003 13 342 1.6 4.8 0.00 0.03 0.03 87 996.7